User: anonymous   Login
Location: Fort Wayne
(41.1310°N, 85.1290°W)
Time: 17:46:38
(UTC-04:00)
Language:

COSMOS 2428 - Orbit

View from above orbital plane
View from above orbital plane
View from above satellite
View from above satellite

Ground track
Ground track

The orbit data is extracted from the following two-line orbital elements,

1 31792U 07029A   15245.44079519  .00000137  00000-0  10000-3 0  9991
2 31792  70.9783 343.4078 0008110 193.7817 263.3259 14.12515693421760
Epoch (UTC): 02 September 2015 10:34:44
Eccentricity: 0.0008110
inclination: 70.9783°
perigee height: 845 km
apogee height: 856 km
right ascension of ascending node: 343.4078°
argument of perigee: 193.7817°
revolutions per day: 14.12515693
mean anomaly at epoch: 263.3259°
orbit number at epoch: 42176

The dashed part of the orbit path shows where the satellite is in the earth's shadow,  

DLR